Location: Helion Bumpstead
(52.0500°N, 0.4000°E)
Time: 21:57:18
(UTC+00:00)

Cosmos 1725 Rocket - Pass Details

Date: 18 February 2026
Orbit: 962 x 989 km, 82.9° (Epoch: 11 March)

Event Time Altitude Azimuth Distance (km) Brightness Sun altitude
Rises 17:57:42 0° 345° (NNW) 3,683 7.1 -6.8°
Reaches altitude 10° 18:00:23 10° 337° (NNW) 2,736 6.5 -7.2°
Maximum altitude 18:06:02 37° 273° (W) 1,479 5.8 -8.0°
Drops below altitude 10° 18:11:42 10° 208° (SSW) 2,735 6.9 -8.9°
Sets 18:14:23 0° 201° (SSW) 3,682 7.4 -9.3°
